contact:dominique.lefevre@mio.osupytheas.fr, maurice.libes@osupytheas.fr, didier.mallarino@osupytheas.fr
Project:EMSO http://www.emso-fr.org/EMSO-France
Depth: 2436.0 m
Title:EMSO Ligure Ouest : Data MII capteur AQUADOPP
Date,Latitude,Longitude,X_East,Y_North,Z_Up,Amplitude_X,Amplitude_Y,Amplitude_Z,Batterie,SoundSpeed,Heading,Pitch,Roll,Pressure,TIS,Speed,Direction
, degrees North, degrees East, m.s-1, m.s-1,m.s-1, 1, 1, 1, Volt, m.s-1, degree, degree, degree, dbar, degree_C, m.s-1, degree
2021-09-14T00:04:03,42.805,6.029,-0.032,-0.003,-0.008,100.0,100.0,100.0,13.4,1505.2,326.4,-0.7,1.8,2470.719,13.28,0.032,264.6
2021-09-14T00:07:03,42.805,6.029,-0.042,-0.008,-0.012,100.0,100.0,100.0,13.3,1505.2,327.5,-0.7,1.8,2470.719,13.28,0.042,259.2
2021-09-14T00:10:03,42.805,6.029,-0.043,-0.005,-0.014,100.0,101.0,100.0,13.4,1505.2,327.4,-0.7,1.8,2470.707,13.28,0.043,263.4
2021-09-14T00:13:03,42.805,6.029,-0.034,-0.011,-0.044,100.0,100.0,100.0,13.4,1505.2,330.2,-0.8,1.8,2470.699,13.28,0.035,252.1
2021-09-14T00:16:03,42.805,6.029,-0.034,-0.018,-0.022,101.0,102.0,99.0,13.3,1505.2,329.5,-0.8,1.8,2470.691,13.28,0.038,242.1
2021-09-14T00:19:03,42.805,6.029,-0.046,-0.009,-0.007,100.0,100.0,100.0,13.4,1505.2,325.6,-0.7,1.8,2470.672,13.28,0.046,258.9
2021-09-14T00:22:03,42.805,6.029,-0.037,-0.01,-0.008,100.0,99.0,101.0,13.4,1505.2,329.4,-0.8,1.8,2470.712,13.28,0.038,254.9
2021-09-14T00:25:03,42.805,6.029,-0.046,-0.04,-0.045,100.0,99.0,100.0,13.4,1505.2,326.6,-0.8,1.8,2470.696,13.28,0.06,229.0
2021-09-14T00:28:03,42.805,6.029,-0.051,-0.001,-0.036,99.0,100.0,100.0,13.4,1505.2,327.8,-0.7,1.8,2470.687,13.28,0.051,268.9
2021-09-14T00:31:03,42.805,6.029,-0.059,0.0,-0.021,99.0,100.0,100.0,13.3,1505.2,328.8,-0.8,1.8,2470.654,13.28,0.058,270.0
2021-09-14T00:34:03,42.805,6.029,-0.037,0.003,0.011,101.0,101.0,100.0,13.4,1505.2,328.7,-0.8,1.8,2470.644,13.28,0.037,274.6
2021-09-14T00:37:03,42.805,6.029,-0.027,-0.014,-0.029,100.0,101.0,100.0,13.3,1505.2,328.5,-0.7,1.8,2470.657,13.28,0.03,242.6
2021-09-14T00:40:03,42.805,6.029,-0.042,-0.01,-0.007,100.0,100.0,100.0,13.3,1505.2,328.4,-0.8,1.8,2470.661,13.28,0.043,256.6
2021-09-14T00:43:03,42.805,6.029,-0.036,-0.005,-0.023,100.0,100.0,100.0,13.3,1505.2,328.1,-0.7,1.8,2470.651,13.28,0.036,262.1
2021-09-14T00:46:03,42.805,6.029,-0.03,-0.011,-0.032,100.0,100.0,100.0,13.3,1505.2,327.5,-0.7,1.8,2470.677,13.28,0.031,249.9
2021-09-14T00:49:03,42.805,6.029,-0.066,-0.018,-0.052,100.0,101.0,99.0,13.3,1505.2,326.0,-0.7,1.8,2470.684,13.28,0.068,254.7
2021-09-14T00:52:03,42.805,6.029,-0.052,-0.01,-0.038,100.0,100.0,99.0,13.4,1505.2,324.8,-0.8,1.8,2470.635,13.28,0.052,259.1
2021-09-14T00:55:03,42.805,6.029,-0.041,-0.003,-0.003,101.0,99.0,100.0,13.4,1505.2,326.5,-0.7,1.9,2470.593,13.28,0.041,265.8
2021-09-14T00:58:03,42.805,6.029,-0.017,-0.003,0.001,98.0,101.0,101.0,13.4,1505.2,329.4,-0.7,1.8,2470.627,13.28,0.017,260.0
2021-09-14T01:04:03,42.805,6.029,-0.04,-0.015,-0.037,102.0,102.0,100.0,13.4,1505.2,330.4,-0.8,1.8,2470.72,13.28,0.042,249.4
2021-09-14T01:07:03,42.805,6.029,0.006,-0.011,0.002,101.0,102.0,100.0,13.4,1505.2,327.4,-0.7,1.9,2470.682,13.28,0.012,151.4
2021-09-14T01:10:03,42.805,6.029,-0.024,-0.006,0.008,101.0,100.0,102.0,13.4,1505.2,327.1,-0.8,1.8,2470.652,13.28,0.024,256.0
2021-09-14T01:13:02,42.805,6.029,-0.056,-0.017,-0.038,101.0,99.0,101.0,13.4,1505.2,325.0,-0.8,1.8,2470.638,13.28,0.058,253.1
2021-09-14T01:16:03,42.805,6.029,-0.023,-0.027,-0.025,100.0,100.0,100.0,13.3,1505.2,326.6,-0.8,1.8,2470.637,13.28,0.035,220.4
2021-09-14T01:19:03,42.805,6.029,-0.057,0.003,0.013,100.0,100.0,100.0,13.4,1505.2,327.8,-0.8,1.8,2470.649,13.28,0.057,273.0
2021-09-14T01:22:03,42.805,6.029,-0.034,-0.022,-0.041,100.0,99.0,100.0,13.3,1505.2,325.9,-0.8,1.9,2470.64,13.28,0.04,237.1
2021-09-14T01:25:03,42.805,6.029,-0.051,0.008,-0.003,101.0,99.0,100.0,13.3,1505.2,327.7,-0.7,1.8,2470.662,13.28,0.051,278.9
2021-09-14T01:28:03,42.805,6.029,-0.02,-0.02,-0.044,102.0,99.0,100.0,13.3,1505.2,327.4,-0.8,1.8,2470.651,13.28,0.028,225.0
2021-09-14T01:31:03,42.805,6.029,-0.069,0.0,-0.028,101.0,101.0,98.0,13.3,1505.2,327.2,-0.7,1.8,2470.633,13.28,0.068,270.0
2021-09-14T01:34:03,42.805,6.029,-0.052,-0.016,-0.007,100.0,100.0,100.0,13.3,1505.2,329.3,-0.8,1.9,2470.63,13.28,0.054,252.9
2021-09-14T01:37:03,42.805,6.029,-0.031,-0.026,-0.008,99.0,101.0,101.0,13.4,1505.2,330.4,-0.7,1.8,2470.649,13.28,0.04,230.0
2021-09-14T01:40:03,42.805,6.029,-0.055,-0.013,-0.035,102.0,100.0,99.0,13.3,1505.2,330.1,-0.8,1.8,2470.612,13.28,0.056,256.7
2021-09-14T01:43:03,42.805,6.029,-0.037,-0.015,-0.018,100.0,100.0,99.0,13.3,1505.2,325.7,-0.8,1.8,2470.624,13.28,0.039,247.9
2021-09-14T01:46:03,42.805,6.029,-0.046,-0.01,-0.026,99.0,100.0,100.0,13.3,1505.2,326.3,-0.8,1.8,2470.635,13.28,0.047,257.7
2021-09-14T01:49:03,42.805,6.029,-0.039,-0.012,-0.012,101.0,100.0,100.0,13.3,1505.2,328.4,-0.8,1.8,2470.633,13.28,0.04,252.9
2021-09-14T01:52:03,42.805,6.029,-0.042,-0.017,-0.027,101.0,101.0,99.0,13.4,1505.2,328.5,-0.7,1.8,2470.634,13.28,0.045,248.0
2021-09-14T01:55:03,42.805,6.029,-0.041,0.005,-0.013,101.0,100.0,100.0,13.4,1505.2,329.3,-0.8,1.8,2470.675,13.28,0.041,277.0
2021-09-14T01:58:03,42.805,6.029,-0.033,0.009,-0.01,102.0,101.0,99.0,13.4,1505.2,326.0,-0.7,1.8,2470.674,13.28,0.034,285.3
2021-09-14T02:04:03,42.805,6.029,-0.031,0.0,-0.012,102.0,101.0,100.0,13.4,1505.2,328.8,-0.7,1.8,2470.654,13.28,0.03,270.0
2021-09-14T02:07:03,42.805,6.029,-0.042,0.004,-0.004,100.0,100.0,99.0,13.3,1505.2,331.3,-0.7,1.8,2470.657,13.28,0.042,275.4
2021-09-14T02:10:03,42.805,6.029,-0.033,-0.005,-0.004,101.0,100.0,99.0,13.3,1505.2,331.2,-0.8,1.8,2470.643,13.28,0.033,261.4
2021-09-14T02:13:03,42.805,6.029,-0.039,-0.003,-0.028,100.0,99.0,100.0,13.4,1505.2,330.1,-0.8,1.9,2470.688,13.28,0.039,265.6
2021-09-14T02:16:03,42.805,6.029,-0.014,-0.029,-0.02,102.0,100.0,99.0,13.4,1505.2,327.2,-0.7,1.8,2470.636,13.28,0.032,205.8
2021-09-14T02:19:03,42.805,6.029,-0.04,-0.011,-0.033,97.0,99.0,101.0,13.4,1505.2,331.3,-0.7,1.8,2470.641,13.28,0.041,254.6
2021-09-14T02:22:03,42.805,6.029,-0.061,-0.018,-0.037,99.0,100.0,99.0,13.3,1505.2,329.0,-0.8,1.8,2470.633,13.28,0.063,253.6
2021-09-14T02:25:03,42.805,6.029,-0.047,-0.007,-0.005,100.0,99.0,101.0,13.4,1505.2,329.3,-0.8,1.8,2470.625,13.28,0.047,261.5
2021-09-14T02:28:03,42.805,6.029,-0.038,0.021,0.022,101.0,99.0,99.0,13.4,1505.2,327.5,-0.7,1.8,2470.629,13.28,0.043,298.9
2021-09-14T02:31:03,42.805,6.029,-0.062,-0.008,-0.035,100.0,99.0,100.0,13.4,1505.2,327.4,-0.8,1.8,2470.617,13.28,0.062,262.7
2021-09-14T02:34:03,42.805,6.029,-0.042,-0.004,-0.032,100.0,100.0,100.0,13.3,1505.2,327.1,-0.7,1.8,2470.615,13.28,0.042,264.6
2021-09-14T02:37:03,42.805,6.029,-0.034,-0.021,-0.04,100.0,100.0,100.0,13.4,1505.2,329.4,-0.7,1.8,2470.581,13.28,0.039,238.3
2021-09-14T02:40:03,42.805,6.029,-0.032,-0.016,-0.011,99.0,99.0,100.0,13.3,1505.2,330.0,-0.7,1.8,2470.621,13.28,0.035,243.4
2021-09-14T02:43:03,42.805,6.029,-0.048,-0.019,-0.025,98.0,99.0,101.0,13.3,1505.2,325.4,-0.7,1.8,2470.582,13.28,0.051,248.4
2021-09-14T02:46:03,42.805,6.029,-0.043,-0.007,-0.025,99.0,100.0,100.0,13.3,1505.2,326.7,-0.7,1.8,2470.61,13.28,0.043,260.8
2021-09-14T02:49:03,42.805,6.029,-0.055,-0.001,-0.006,100.0,99.0,100.0,13.4,1505.2,327.5,-0.7,1.8,2470.613,13.28,0.055,269.0
2021-09-14T02:52:03,42.805,6.029,-0.063,0.0,-0.025,101.0,100.0,99.0,13.4,1505.2,328.7,-0.8,1.8,2470.613,13.28,0.062,270.0
2021-09-14T02:55:03,42.805,6.029,-0.057,0.007,0.019,99.0,101.0,100.0,13.4,1505.2,326.4,-0.8,1.8,2470.618,13.28,0.057,277.0
2021-09-14T02:58:03,42.805,6.029,-0.046,-0.003,-0.018,99.0,99.0,101.0,13.4,1505.2,326.1,-0.8,1.9,2470.599,13.28,0.046,266.3
2021-09-14T03:04:03,42.805,6.029,-0.039,-0.007,-0.038,101.0,100.0,100.0,13.4,1505.2,326.2,-0.7,1.8,2470.65,13.28,0.039,259.8
2021-09-14T03:07:03,42.805,6.029,-0.042,-0.012,-0.021,100.0,101.0,99.0,13.4,1505.2,328.3,-0.8,1.8,2470.688,13.28,0.043,254.1
2021-09-14T03:10:03,42.805,6.029,-0.048,-0.002,-0.022,99.0,100.0,101.0,13.3,1505.2,330.3,-0.7,1.8,2470.629,13.28,0.048,267.6
2021-09-14T03:13:03,42.805,6.029,-0.064,-0.018,-0.038,99.0,99.0,100.0,13.3,1505.2,327.3,-0.8,1.8,2470.624,13.28,0.066,254.3
2021-09-14T03:16:03,42.805,6.029,-0.018,-0.033,-0.043,100.0,100.0,100.0,13.4,1505.2,327.9,-0.8,1.8,2470.601,13.28,0.037,208.6
2021-09-14T03:19:03,42.805,6.029,-0.061,-0.009,-0.013,100.0,101.0,99.0,13.4,1505.2,327.4,-0.8,1.8,2470.624,13.28,0.061,261.6
2021-09-14T03:22:03,42.805,6.029,-0.035,0.034,-0.01,100.0,99.0,100.0,13.4,1505.2,327.5,-0.7,1.8,2470.655,13.28,0.048,314.2
2021-09-14T03:25:03,42.805,6.029,-0.058,0.002,-0.023,100.0,99.0,100.0,13.3,1505.2,329.3,-0.8,1.9,2470.561,13.28,0.058,272.0
2021-09-14T03:28:03,42.805,6.029,-0.047,-0.002,-0.031,101.0,99.0,100.0,13.4,1505.2,330.0,-0.8,1.8,2470.612,13.28,0.047,267.6
2021-09-14T03:31:03,42.805,6.029,-0.042,0.003,-0.02,101.0,100.0,100.0,13.3,1505.2,326.5,-0.8,1.8,2470.595,13.28,0.042,274.1
2021-09-14T03:34:03,42.805,6.029,-0.062,0.003,-0.038,100.0,100.0,99.0,13.4,1505.2,328.7,-0.8,1.8,2470.584,13.28,0.062,272.8
2021-09-14T03:37:03,42.805,6.029,-0.033,-0.007,-0.015,101.0,100.0,100.0,13.4,1505.2,329.4,-0.7,1.8,2470.574,13.28,0.033,258.0
2021-09-14T03:40:03,42.805,6.029,-0.031,-0.001,-0.005,100.0,100.0,101.0,13.4,1505.2,329.1,-0.8,1.8,2470.607,13.28,0.031,268.2
2021-09-14T03:43:03,42.805,6.029,-0.037,0.0,0.0,100.0,100.0,100.0,13.4,1505.2,328.9,-0.8,1.8,2470.607,13.28,0.037,270.0
2021-09-14T03:46:03,42.805,6.029,-0.049,-0.007,-0.018,100.0,99.0,100.0,13.4,1505.2,325.7,-0.8,1.8,2470.61,13.28,0.049,261.9
2021-09-14T03:49:03,42.805,6.029,-0.045,-0.019,-0.053,100.0,100.0,100.0,13.3,1505.2,329.4,-0.7,1.8,2470.615,13.28,0.048,247.1
2021-09-14T03:52:03,42.805,6.029,-0.002,-0.009,0.005,99.0,103.0,100.0,13.4,1505.2,328.4,-0.8,1.9,2470.586,13.28,0.009,192.5
2021-09-14T03:55:03,42.805,6.029,-0.034,0.009,-0.019,99.0,99.0,100.0,13.4,1505.2,331.1,-0.7,1.8,2470.587,13.28,0.035,284.8
2021-09-14T03:58:03,42.805,6.029,-0.067,0.017,-0.02,100.0,101.0,100.0,13.4,1505.2,328.1,-0.8,1.8,2470.638,13.28,0.069,284.2
2021-09-14T04:04:03,42.805,6.029,-0.054,0.003,-0.053,99.0,101.0,99.0,13.4,1505.2,327.2,-0.8,1.8,2470.582,13.28,0.054,273.2
2021-09-14T04:07:03,42.805,6.029,-0.039,-0.008,-0.038,100.0,100.0,99.0,13.4,1505.2,328.0,-0.8,1.8,2470.637,13.28,0.039,258.4
2021-09-14T04:10:03,42.805,6.029,-0.01,-0.017,-0.037,100.0,99.0,100.0,13.4,1505.2,326.6,-0.8,1.8,2470.625,13.28,0.019,210.5
2021-09-14T04:13:03,42.805,6.029,-0.027,-0.013,0.005,100.0,100.0,100.0,13.4,1505.2,327.6,-0.8,1.8,2470.636,13.28,0.029,244.3
2021-09-14T04:16:03,42.805,6.029,-0.043,-0.01,-0.014,101.0,99.0,100.0,13.4,1505.2,326.7,-0.8,1.8,2470.582,13.28,0.044,256.9
2021-09-14T04:19:03,42.805,6.029,-0.051,0.01,-0.005,100.0,100.0,100.0,13.3,1505.2,329.9,-0.7,1.8,2470.623,13.28,0.051,281.1
2021-09-14T04:22:03,42.805,6.029,-0.056,0.012,0.002,100.0,99.0,100.0,13.4,1505.2,325.4,-0.8,1.8,2470.596,13.28,0.057,282.1
2021-09-14T04:25:03,42.805,6.029,-0.027,-0.028,-0.041,100.0,100.0,99.0,13.4,1505.2,327.5,-0.8,1.8,2470.591,13.28,0.038,224.0
2021-09-14T04:28:03,42.805,6.029,-0.045,-0.011,0.003,99.0,100.0,100.0,13.4,1505.2,331.0,-0.8,1.8,2470.618,13.28,0.046,256.3
2021-09-14T04:31:03,42.805,6.029,-0.031,-0.016,-0.029,100.0,101.0,100.0,13.4,1505.2,325.6,-0.8,1.8,2470.616,13.28,0.034,242.7
2021-09-14T04:34:03,42.805,6.029,-0.067,0.0,-0.029,100.0,100.0,100.0,13.3,1505.2,326.8,-0.8,1.8,2470.625,13.28,0.066,270.0
2021-09-14T04:37:03,42.805,6.029,-0.044,-0.015,-0.021,102.0,97.0,100.0,13.3,1505.2,329.8,-0.8,1.8,2470.583,13.28,0.046,251.2
2021-09-14T04:40:03,42.805,6.029,-0.025,-0.008,-0.036,100.0,100.0,100.0,13.4,1505.2,326.5,-0.8,1.8,2470.575,13.28,0.026,252.3
2021-09-14T04:43:03,42.805,6.029,-0.03,-0.009,-0.037,100.0,100.0,100.0,13.4,1505.2,330.3,-0.8,1.8,2470.571,13.28,0.031,253.3
2021-09-14T04:46:03,42.805,6.029,-0.059,0.0,-0.031,99.0,100.0,100.0,13.4,1505.2,328.7,-0.7,1.8,2470.58,13.28,0.058,270.0
2021-09-14T04:49:03,42.805,6.029,-0.042,-0.011,-0.009,101.0,100.0,99.0,13.4,1505.2,327.8,-0.7,1.8,2470.606,13.28,0.043,255.3
2021-09-14T04:52:03,42.805,6.029,-0.032,-0.022,-0.033,100.0,99.0,100.0,13.3,1505.2,328.4,-0.7,1.8,2470.576,13.28,0.038,235.5
2021-09-14T04:55:03,42.805,6.029,-0.038,-0.021,-0.008,100.0,100.0,100.0,13.4,1505.2,326.9,-0.8,1.8,2470.57,13.28,0.043,241.1
2021-09-14T04:58:03,42.805,6.029,-0.049,-0.015,-0.039,98.0,101.0,101.0,13.4,1505.2,328.5,-0.7,1.8,2470.609,13.28,0.051,253.0
2021-09-14T05:04:03,42.805,6.029,-0.058,-0.004,-0.05,100.0,100.0,99.0,13.4,1505.2,329.0,-0.8,1.8,2470.634,13.28,0.058,266.1
2021-09-14T05:07:03,42.805,6.029,-0.025,-0.008,-0.037,100.0,99.0,99.0,13.3,1505.2,325.7,-0.7,1.8,2470.634,13.28,0.026,252.3
2021-09-14T05:10:03,42.805,6.029,-0.027,0.004,-0.013,100.0,97.0,100.0,13.4,1505.2,326.4,-0.7,1.8,2470.595,13.28,0.027,278.4
2021-09-14T05:13:03,42.805,6.029,-0.05,-0.001,-0.016,99.0,101.0,99.0,13.4,1505.2,331.1,-0.7,1.8,2470.586,13.28,0.05,268.9
2021-09-14T05:16:03,42.805,6.029,-0.028,-0.014,-0.027,100.0,99.0,99.0,13.4,1505.2,329.0,-0.8,1.8,2470.583,13.28,0.031,243.4
2021-09-14T05:19:03,42.805,6.029,-0.023,-0.008,-0.016,99.0,99.0,100.0,13.4,1505.2,330.6,-0.7,1.8,2470.6,13.28,0.024,250.8
2021-09-14T05:22:03,42.805,6.029,-0.045,-0.014,-0.038,100.0,99.0,100.0,13.4,1505.2,329.9,-0.7,1.8,2470.602,13.28,0.047,252.7
2021-09-14T05:25:03,42.805,6.029,-0.052,-0.001,-0.037,100.0,100.0,100.0,13.3,1505.2,325.2,-0.7,1.8,2470.577,13.28,0.052,268.9
2021-09-14T05:28:03,42.805,6.029,-0.015,-0.006,-0.014,100.0,99.0,100.0,13.4,1505.2,328.7,-0.8,1.8,2470.589,13.28,0.016,248.2
2021-09-14T05:31:03,42.805,6.029,-0.056,0.0,-0.033,99.0,99.0,101.0,13.4,1505.2,328.0,-0.7,1.8,2470.548,13.28,0.056,270.0
2021-09-14T05:34:03,42.805,6.029,-0.046,0.015,-0.04,99.0,100.0,99.0,13.4,1505.2,327.5,-0.7,1.8,2470.562,13.28,0.048,288.1
2021-09-14T05:37:03,42.805,6.029,-0.005,0.002,-0.005,99.0,98.0,101.0,13.3,1505.2,329.1,-0.7,1.8,2470.591,13.28,0.005,291.8
2021-09-14T05:40:03,42.805,6.029,-0.02,-0.011,-0.049,98.0,99.0,101.0,13.3,1505.2,325.5,-0.8,1.8,2470.635,13.28,0.022,241.2
2021-09-14T05:43:03,42.805,6.029,-0.054,0.018,0.026,100.0,99.0,100.0,13.3,1505.2,331.4,-0.8,1.8,2470.565,13.28,0.056,288.4
2021-09-14T05:46:03,42.805,6.029,-0.022,-0.005,0.001,100.0,99.0,99.0,13.3,1505.2,329.9,-0.7,1.8,2470.571,13.28,0.022,257.2
2021-09-14T05:49:03,42.805,6.029,-0.032,-0.021,-0.017,100.0,100.0,100.0,13.4,1505.2,329.1,-0.8,1.8,2470.574,13.28,0.038,236.7
2021-09-14T05:52:03,42.805,6.029,-0.021,-0.038,-0.022,100.0,99.0,101.0,13.4,1505.2,327.6,-0.8,1.8,2470.583,13.28,0.043,208.9
2021-09-14T05:55:03,42.805,6.029,-0.03,-0.013,0.01,100.0,99.0,99.0,13.3,1505.2,329.4,-0.7,1.8,2470.549,13.28,0.032,246.6
2021-09-14T05:58:03,42.805,6.029,-0.033,-0.018,-0.012,100.0,98.0,101.0,13.3,1505.2,326.7,-0.7,1.8,2470.586,13.28,0.037,241.4
2021-09-14T06:04:03,42.805,6.029,-0.046,-0.007,-0.025,99.0,100.0,99.0,13.4,1505.2,324.9,-0.7,1.9,2470.617,13.28,0.046,261.3
2021-09-14T06:07:03,42.805,6.029,-0.042,-0.002,-0.027,100.0,98.0,100.0,13.4,1505.2,329.8,-0.8,1.8,2470.592,13.28,0.042,267.3
2021-09-14T06:10:03,42.805,6.029,-0.06,0.0,-0.045,99.0,99.0,99.0,13.4,1505.2,331.3,-0.8,1.8,2470.579,13.28,0.06,270.0
2021-09-14T06:13:03,42.805,6.029,-0.036,-0.02,-0.026,99.0,98.0,100.0,13.3,1505.2,326.2,-0.8,1.8,2470.609,13.28,0.041,240.9
2021-09-14T06:16:03,42.805,6.029,-0.043,-0.027,-0.042,99.0,100.0,100.0,13.3,1505.2,331.2,-0.8,1.8,2470.567,13.28,0.05,237.9
2021-09-14T06:19:03,42.805,6.029,-0.032,-0.008,0.009,99.0,99.0,101.0,13.4,1505.2,328.7,-0.7,1.8,2470.591,13.28,0.032,256.0
2021-09-14T06:22:03,42.805,6.029,-0.059,-0.002,-0.034,99.0,101.0,100.0,13.3,1505.2,326.9,-0.7,1.8,2470.579,13.28,0.059,268.1
2021-09-14T06:25:03,42.805,6.029,-0.061,-0.02,-0.046,99.0,100.0,99.0,13.3,1505.2,328.9,-0.8,1.8,2470.6,13.28,0.064,251.9
2021-09-14T06:28:03,42.805,6.029,-0.023,-0.032,-0.043,101.0,99.0,98.0,13.4,1505.2,329.8,-0.8,1.8,2470.604,13.28,0.039,215.7
2021-09-14T06:31:03,42.805,6.029,-0.037,-0.017,-0.039,101.0,100.0,99.0,13.4,1505.2,330.3,-0.7,1.8,2470.555,13.28,0.04,245.3
2021-09-14T06:34:03,42.805,6.029,-0.022,-0.027,-0.051,99.0,101.0,100.0,13.3,1505.2,326.0,-0.7,1.8,2470.595,13.28,0.034,219.2
2021-09-14T06:37:03,42.805,6.029,-0.029,-0.021,-0.034,100.0,101.0,100.0,13.4,1505.2,329.1,-0.7,1.8,2470.554,13.28,0.035,234.1
2021-09-14T06:40:03,42.805,6.029,-0.028,0.0,-0.009,99.0,100.0,101.0,13.3,1505.2,327.1,-0.7,1.8,2470.546,13.28,0.028,270.0
2021-09-14T06:43:03,42.805,6.029,-0.041,-0.005,-0.003,99.0,100.0,100.0,13.4,1505.2,329.5,-0.8,1.8,2470.586,13.28,0.041,263.0
2021-09-14T06:46:03,42.805,6.029,-0.052,-0.018,-0.033,100.0,98.0,101.0,13.3,1505.2,330.3,-0.8,1.8,2470.566,13.28,0.055,250.9
2021-09-14T06:49:03,42.805,6.029,-0.05,-0.003,-0.047,100.0,99.0,100.0,13.4,1505.2,330.8,-0.7,1.8,2470.532,13.28,0.05,266.6
2021-09-14T06:52:03,42.805,6.029,-0.041,0.004,0.006,100.0,99.0,100.0,13.4,1505.2,330.9,-0.8,1.8,2470.546,13.28,0.041,275.6
2021-09-14T06:55:03,42.805,6.029,-0.052,-0.028,-0.053,99.0,100.0,100.0,13.4,1505.2,327.5,-0.7,1.8,2470.528,13.28,0.059,241.7
2021-09-14T06:58:03,42.805,6.029,-0.027,-0.021,-0.03,100.0,100.0,99.0,13.4,1505.2,329.1,-0.8,1.8,2470.546,13.28,0.034,232.1
2021-09-14T07:04:03,42.805,6.029,-0.056,-0.012,-0.069,100.0,100.0,100.0,13.4,1505.2,327.8,-0.7,1.8,2470.583,13.28,0.057,257.9
2021-09-14T07:07:03,42.805,6.029,-0.038,-0.028,-0.028,100.0,100.0,99.0,13.3,1505.2,325.0,-0.8,1.8,2470.613,13.28,0.047,233.6
2021-09-14T07:10:03,42.805,6.029,-0.051,-0.008,-0.056,100.0,99.0,99.0,13.4,1505.2,329.5,-0.7,1.8,2470.571,13.28,0.051,261.1
2021-09-14T07:13:03,42.805,6.029,-0.041,-0.022,-0.049,100.0,99.0,99.0,13.3,1505.2,329.7,-0.8,1.8,2470.567,13.28,0.046,241.8
2021-09-14T07:16:03,42.805,6.029,-0.038,0.009,0.007,101.0,98.0,99.0,13.4,1505.2,329.1,-0.7,1.8,2470.532,13.28,0.039,283.3
2021-09-14T07:19:03,42.805,6.029,-0.026,-0.042,-0.019,99.0,100.0,100.0,13.4,1505.2,325.2,-0.8,1.8,2470.567,13.28,0.049,211.8
2021-09-14T07:22:03,42.805,6.029,-0.047,0.014,-0.019,99.0,100.0,100.0,13.4,1505.2,327.7,-0.7,1.8,2470.594,13.28,0.049,286.6
2021-09-14T07:25:03,42.805,6.029,-0.021,-0.019,-0.019,99.0,100.0,100.0,13.4,1505.2,327.6,-0.8,1.8,2470.569,13.28,0.028,227.9
2021-09-14T07:28:03,42.805,6.029,-0.035,-0.025,-0.031,99.0,99.0,100.0,13.4,1505.2,330.1,-0.8,1.8,2470.577,13.28,0.043,234.5
2021-09-14T07:31:03,42.805,6.029,-0.039,-0.034,-0.055,101.0,98.0,99.0,13.4,1505.2,330.0,-0.7,1.8,2470.566,13.28,0.051,228.9
2021-09-14T07:34:03,42.805,6.029,-0.051,-0.037,-0.034,99.0,100.0,100.0,13.3,1505.2,326.5,-0.7,1.8,2470.558,13.28,0.063,234.0
2021-09-14T07:37:03,42.805,6.029,-0.04,-0.014,-0.052,99.0,100.0,99.0,13.4,1505.2,326.1,-0.8,1.9,2470.559,13.28,0.042,250.7
2021-09-14T07:40:03,42.805,6.029,-0.012,0.0,-0.013,99.0,99.0,99.0,13.3,1505.2,326.5,-0.7,1.8,2470.555,13.28,0.012,270.0
2021-09-14T07:43:03,42.805,6.029,-0.053,-0.001,-0.012,99.0,100.0,100.0,13.4,1505.2,327.7,-0.7,1.8,2470.576,13.28,0.053,268.9
2021-09-14T07:46:03,42.805,6.029,-0.033,-0.027,-0.018,101.0,99.0,99.0,13.3,1505.2,328.3,-0.8,1.8,2470.541,13.28,0.042,230.7
2021-09-14T07:49:03,42.805,6.029,-0.022,-0.017,-0.02,99.0,100.0,100.0,13.4,1505.2,326.2,-0.8,1.8,2470.565,13.28,0.027,232.3
2021-09-14T07:52:03,42.805,6.029,-0.05,0.005,-0.017,100.0,100.0,99.0,13.4,1505.2,327.1,-0.8,1.8,2470.58,13.28,0.05,275.7
2021-09-14T07:55:03,42.805,6.029,-0.042,-0.012,-0.035,100.0,99.0,99.0,13.4,1505.2,329.2,-0.7,1.8,2470.535,13.28,0.043,254.1
2021-09-14T07:58:03,42.805,6.029,-0.029,-0.009,0.007,100.0,100.0,100.0,13.4,1505.2,326.1,-0.7,1.8,2470.547,13.28,0.03,252.8
2021-09-14T08:04:03,42.805,6.029,-0.02,-0.012,-0.006,101.0,100.0,99.0,13.4,1505.2,326.9,-0.8,1.8,2470.634,13.28,0.023,239.0
2021-09-14T08:07:03,42.805,6.029,-0.036,-0.023,-0.066,100.0,99.0,99.0,13.4,1505.2,328.3,-0.7,1.8,2470.586,13.28,0.042,237.4
2021-09-14T08:10:03,42.805,6.029,-0.047,-0.005,-0.044,99.0,99.0,99.0,13.4,1505.2,326.5,-0.8,1.8,2470.61,13.28,0.047,263.9
2021-09-14T08:13:03,42.805,6.029,-0.05,-0.009,-0.015,102.0,99.0,99.0,13.4,1505.2,326.8,-0.8,1.8,2470.57,13.28,0.05,259.8
2021-09-14T08:16:03,42.805,6.029,-0.06,-0.011,-0.038,100.0,100.0,100.0,13.4,1505.2,327.9,-0.8,1.9,2470.599,13.28,0.06,259.6
2021-09-14T08:19:03,42.805,6.029,-0.035,-0.026,-0.06,100.0,99.0,100.0,13.4,1505.2,324.7,-0.7,1.8,2470.579,13.28,0.043,233.4
2021-09-14T08:22:03,42.805,6.029,-0.047,-0.014,-0.047,101.0,101.0,98.0,13.4,1505.2,325.3,-0.7,1.8,2470.574,13.28,0.049,253.4
2021-09-14T08:25:03,42.805,6.029,-0.035,-0.004,-0.033,101.0,99.0,99.0,13.4,1505.2,327.0,-0.7,1.8,2470.614,13.28,0.035,263.5
2021-09-14T08:28:03,42.805,6.029,-0.03,-0.018,-0.027,100.0,99.0,99.0,13.4,1505.2,327.8,-0.8,1.8,2470.605,13.28,0.034,239.0
2021-09-14T08:31:03,42.805,6.029,-0.036,-0.024,-0.043,99.0,100.0,100.0,13.4,1505.2,328.8,-0.7,1.8,2470.581,13.28,0.043,236.3
2021-09-14T08:34:03,42.805,6.029,-0.027,-0.016,-0.039,101.0,99.0,100.0,13.4,1505.2,329.4,-0.8,1.9,2470.548,13.28,0.031,239.3
2021-09-14T08:37:03,42.805,6.029,-0.029,-0.03,-0.027,99.0,100.0,100.0,13.4,1505.2,327.4,-0.8,1.8,2470.59,13.28,0.041,224.0
2021-09-14T08:40:03,42.805,6.029,-0.032,-0.028,-0.026,100.0,99.0,100.0,13.3,1505.2,326.9,-0.8,1.8,2470.581,13.28,0.042,228.8
2021-09-14T08:43:03,42.805,6.029,-0.027,-0.009,-0.023,100.0,102.0,99.0,13.4,1505.2,327.9,-0.8,1.8,2470.606,13.28,0.028,251.6
2021-09-14T08:46:03,42.805,6.029,-0.044,-0.017,-0.051,99.0,101.0,100.0,13.4,1505.2,329.3,-0.8,1.8,2470.596,13.28,0.047,248.9
2021-09-14T08:49:03,42.805,6.029,-0.016,-0.02,-0.016,100.0,99.0,100.0,13.4,1505.2,327.8,-0.7,1.8,2470.574,13.28,0.025,218.7
2021-09-14T08:52:03,42.805,6.029,-0.036,-0.011,-0.018,100.0,100.0,99.0,13.4,1505.2,326.1,-0.8,1.8,2470.619,13.28,0.037,253.0
2021-09-14T08:55:03,42.805,6.029,-0.036,-0.016,-0.002,98.0,100.0,101.0,13.4,1505.2,329.6,-0.7,1.8,2470.606,13.28,0.039,246.0
2021-09-14T08:58:03,42.805,6.029,-0.024,-0.028,-0.067,101.0,100.0,100.0,13.3,1505.2,327.2,-0.8,1.8,2470.584,13.28,0.036,220.6
2021-09-14T09:04:03,42.805,6.029,-0.044,-0.03,-0.045,100.0,99.0,100.0,13.4,1505.2,327.6,-0.7,1.8,2470.657,13.28,0.053,235.7
2021-09-14T09:07:03,42.805,6.029,-0.017,-0.021,-0.024,100.0,100.0,99.0,13.4,1505.2,330.6,-0.8,1.9,2470.668,13.28,0.027,219.0
2021-09-14T09:10:03,42.805,6.029,-0.028,-0.018,-0.029,101.0,99.0,100.0,13.3,1505.2,328.4,-0.8,1.8,2470.644,13.28,0.033,237.3
2021-09-14T09:13:03,42.805,6.029,-0.032,-0.026,-0.027,99.0,101.0,100.0,13.4,1505.2,327.5,-0.8,1.8,2470.652,13.28,0.041,230.9
2021-09-14T09:16:03,42.805,6.029,-0.014,-0.035,-0.062,100.0,99.0,100.0,13.4,1505.2,329.4,-0.7,1.8,2470.628,13.28,0.037,201.8
2021-09-14T09:19:03,42.805,6.029,-0.037,-0.008,0.0,100.0,99.0,99.0,13.3,1505.2,327.2,-0.8,1.8,2470.627,13.28,0.037,257.8
2021-09-14T09:22:03,42.805,6.029,-0.045,-0.014,-0.044,100.0,99.0,100.0,13.4,1505.2,327.8,-0.8,1.8,2470.607,13.28,0.047,252.7
2021-09-14T09:25:03,42.805,6.029,-0.019,0.0,-0.008,102.0,100.0,99.0,13.4,1505.2,331.1,-0.7,1.8,2470.624,13.28,0.019,270.0
2021-09-14T09:28:03,42.805,6.029,-0.028,-0.026,-0.02,99.0,100.0,100.0,13.3,1505.2,329.5,-0.7,1.8,2470.632,13.28,0.038,227.1
2021-09-14T09:31:03,42.805,6.029,-0.054,-0.025,-0.042,99.0,99.0,101.0,13.4,1505.2,329.8,-0.7,1.8,2470.605,13.28,0.059,245.2
2021-09-14T09:34:03,42.805,6.029,-0.042,-0.021,-0.028,101.0,99.0,101.0,13.3,1505.2,329.8,-0.8,1.8,2470.578,13.28,0.046,243.4
2021-09-14T09:37:03,42.805,6.029,-0.035,-0.014,-0.018,99.0,101.0,99.0,13.4,1505.2,327.2,-0.7,1.8,2470.603,13.28,0.037,248.2
2021-09-14T09:40:03,42.805,6.029,-0.065,0.004,-0.029,100.0,100.0,99.0,13.3,1505.2,328.4,-0.7,1.8,2470.616,13.28,0.065,273.5
2021-09-14T09:43:03,42.805,6.029,-0.039,-0.062,-0.081,100.0,100.0,99.0,13.4,1505.2,328.8,-0.7,1.8,2470.603,13.28,0.073,212.2
2021-09-14T09:46:03,42.805,6.029,-0.035,-0.031,-0.067,100.0,101.0,99.0,13.4,1505.2,329.7,-0.7,1.8,2470.601,13.28,0.046,228.5
2021-09-14T09:49:03,42.805,6.029,-0.047,-0.002,-0.052,101.0,100.0,100.0,13.4,1505.2,329.1,-0.8,1.8,2470.61,13.28,0.047,267.6
2021-09-14T09:52:03,42.805,6.029,-0.024,-0.014,-0.058,100.0,100.0,100.0,13.4,1505.2,328.5,-0.8,1.8,2470.638,13.28,0.027,239.7
2021-09-14T09:55:03,42.805,6.029,-0.027,0.009,0.012,100.0,100.0,100.0,13.4,1505.2,327.2,-0.8,1.8,2470.618,13.28,0.028,288.4